#timestamp,LO_Frequency,Hit,StdDev 
1692334815.5,286047000.7,N
1692334835.4,286046998.3,N
1692334855.2,286046997.2,N
1692334875.0,286046996.9,N
1692334875.9,286046996.9,N
1692334895.8,286046999.4,N
1692334915.6,286047000.4,N
1692334935.4,286046998.3,N
1692334955.3,286046998.1,N
1692334975.1,286047001.1,N
1692334995.9,286047002.3,N
1692335015.7,286047007.3,N
1692335035.5,286047008.2,N
1692335055.4,286047006.3,N
1692335075.2,286047008.6,N
1692335095.0,286047006.8,N
1692335095.9,286047006.8,N
1692335115.8,286047008.3,N
1692335135.6,286047007.7,N
1692335155.5,286047011.2,N
1692335175.3,286047014.9,N
1692335195.1,286047019.9,Y
1692335215.9,286047014.2,P
1692335235.7,286047014.1,P
1692335255.6,286047017.0,P
1692335275.4,286047018.4,Y
1692335295.2,286047003.5,P
1692335315.1,286047007.3,N
1692335316.0,286047007.3,N
1692335335.8,286047005.5,N
1692335355.6,286047005.6,N
1692335375.5,286047002.9,N
1692335395.3,286047005.3,N
1692335415.2,286047003.8,N
1692335435.9,286047003.0,N
1692335455.7,286047006.0,N
1692335475.6,286047001.4,N
1692335495.4,286047002.8,N
1692335515.2,286047001.3,N
1692335535.1,286047005.5,N
1692335536.0,286047005.5,N
1692335555.8,286047005.3,N
1692335575.7,286047005.4,N
1692335595.5,286047004.5,N
1692335615.3,286047002.9,N
1692335635.2,286047001.7,N
1692335655.9,286047000.2,N
1692335675.7,286047002.1,N
1692335695.6,286046996.8,N
1692335715.4,286046995.9,N
1692335735.3,286046996.8,N
1692335755.1,286046997.6,N
1692335756.0,286046997.6,N
1692335775.8,286047002.1,N
1692335795.7,286047000.4,N
1692335815.5,286047003.3,N
1692335835.3,286047003.4,N
1692335855.2,286047002.1,N
1692335875.0,286046998.8,N
1692335875.9,286046998.8,N
1692335895.8,286047012.1,Y
1692335915.6,286047001.6,P
1692335935.4,286047002.4,P
1692335955.3,286046997.1,P
1692335975.1,286047002.7,N
1692335995.8,286047001.7,N
1692336015.7,286047001.7,N
1692336035.5,286047009.8,Y
1692336055.4,286047007.0,P
1692336075.2,286047006.2,N
1692336095.0,286047011.9,P
1692336095.9,286047011.9,Y
1692336115.8,286047004.3,P
1692336135.6,286046998.4,N
1692336155.5,286047002.2,N
1692336175.3,286047004.3,N
1692336195.1,286047004.0,N
1692336215.9,286046998.2,N
1692336235.7,286046995.4,N
1692336255.5,286046993.0,N
1692336275.4,286046992.7,N
1692336295.2,286046990.8,N
1692336315.0,286046991.5,N
1692336316.0,286046991.5,N
1692336335.8,286046992.7,N
1692336355.6,286046992.5,N
1692336375.5,286046996.7,N
1692336395.3,286047001.1,N
1692336415.1,286047002.6,N
1692336435.9,286047009.2,N
1692336455.7,286047008.2,N
1692336475.5,286047010.3,N
1692336495.4,286047014.7,N
1692336515.2,286047012.6,N
1692336535.1,286047014.8,N
1692336536.0,286047014.8,N
1692336555.8,286047016.5,N
1692336575.6,286047019.9,N
1692336595.5,286047019.4,N
1692336615.3,286047019.4,N
1692336635.1,286047015.7,N
1692336655.9,286047013.2,N
1692336675.7,286047013.1,N
1692336695.6,286047011.8,N
1692336715.4,286047008.4,N
1692336735.2,286047008.3,N
1692336755.1,286047006.8,N
1692336756.0,286047006.8,N
1692336775.8,286047008.3,N
1692336795.6,286047003.3,N
1692336815.5,286047000.1,N
1692336835.3,286047001.2,N
1692336855.2,286046997.3,N
1692336875.9,286046994.5,N
1692336895.7,286046992.1,N
1692336915.6,286046994.8,N
1692336935.4,286046990.2,N
1692336955.2,286046989.1,N
1692336975.1,286046987.8,N
1692336976.0,286046987.8,N
1692336995.8,286046987.3,N
1692337015.7,286046989.7,N
1692337035.5,286046988.2,N
1692337055.3,286046987.5,N
1692337075.2,286046989.6,N
1692337095.0,286046989.6,N
1692337095.9,286046989.6,N
1692337115.8,286046990.0,N
1692337135.6,286046989.3,N
1692337155.4,286046989.2,N
1692337175.3,286046989.9,N
1692337195.1,286046990.2,N
1692337196.0,286046990.2,N
1692337215.8,286046991.8,N
1692337235.7,286046995.9,N
1692337255.5,286046994.5,N
1692337275.3,286046994.8,N
1692337295.2,286046990.5,N
1692337315.0,286046986.9,N
1692337315.9,286046986.9,Y
1692337335.8,286046997.0,P
1692337355.6,286046997.9,N
1692337375.4,286046996.0,N
1692337395.3,286046991.4,Y
1692337415.1,286046990.2,P
1692337435.9,286046990.9,P
1692337455.7,286046989.7,P
1692337475.5,286046989.9,Y
1692337495.4,286046995.7,P
1692337515.2,286047011.9,P
1692337535.0,286046997.7,N
1692337535.9,286046997.7,N
1692337555.8,286046999.5,N
1692337575.6,286046998.3,N
1692337595.5,286046996.8,N
1692337615.3,286046999.4,N
1692337635.1,286047001.5,N
1692337655.9,286047002.8,N
1692337675.7,286047002.5,N
1692337695.5,286046998.1,N
1692337715.4,286047000.0,N
1692337735.2,286046999.6,N
1692337755.1,286046997.5,N
1692337756.0,286046997.5,N
1692337775.8,286046993.6,N
1692337795.6,286046993.6,N
1692337815.5,286046992.9,N
1692337835.3,286046993.0,N
1692337855.2,286046993.1,N
1692337875.9,286046989.9,N
1692337895.7,286046985.9,Y
1692337915.6,286046986.3,P
1692337935.4,286046985.1,N
1692337955.2,286046981.7,P
1692337975.1,286046977.2,Y
1692337976.0,286046977.2,P
1692337995.8,286046985.9,N
1692338015.7,286046983.7,P
1692338035.5,286046985.1,Y
1692338055.3,286046996.9,P
1692338075.2,286046996.6,N
1692338095.0,286046996.6,N
1692338095.9,286046996.6,N
1692338115.8,286046998.4,N
1692338135.6,286047002.4,N
1692338155.4,286047001.3,N
1692338175.3,286047004.6,N
1692338195.1,286047011.6,N
1692338215.8,286047017.3,N
1692338235.7,286047023.2,N
1692338255.5,286047024.3,N
1692338275.4,286047027.9,N
1692338295.2,286047031.6,N
1692338315.0,286047031.5,N
1692338315.9,286047031.5,N
1692338335.8,286047027.5,N
1692338355.6,286047031.4,N
1692338375.4,286047029.2,N
1692338395.3,286047025.4,N
